Location: Lafig�re
(44.4503°N, 4.0357°E)
Time: 16:21:03
(UTC+00:00)

Meteor 2-5 Rocket - Pass Details

Date: 24 September 2020
Orbit: 833 x 912 km, 81.2° (Epoch: 25 October)

Event Time Altitude Azimuth Distance (km) Brightness Sun altitude
Rises 19:48:59 0° 346° (NNW) 3,436 7.4 -23.8°
Reaches altitude 10° 19:51:25 10° 343° (NNW) 2,506 6.7 -24.2°
Maximum altitude 19:57:00 61° 264° (W) 988 4.2 -25.1°
Enters shadow 20:00:40 23° 191° (S) 1,805 5.2 -25.7°
